This is the latest recevied weather packets stored in our database for station/object DH1FR-13. If no packets are shown the sender has not sent any weather packets the latest 10 day(s).
| Time | Temp. | Humidity | Pressure | Rain* | Wind** | Luminosity | Snow |
|---|---|---|---|---|---|---|---|
| 1777445401 | 8.89° C | 54% | 1028.4 hPa | 0 mm | 0 m/s | - | - |
| 1777444801 | 8.33° C | 56% | 1028.4 hPa | 0 mm | 0 m/s | - | - |
| 1777444201 | 8.33° C | 56% | 1028.4 hPa | 0 mm | 0 m/s | - | - |
| 1777443601 | 8.33° C | 57% | 1028.2 hPa | 0 mm | 0 m/s | - | - |
| 1777443001 | 7.78° C | 59% | 1028.1 hPa | 0 mm | 0 m/s | - | - |
| 1777442401 | 7.22° C | 60% | 1028 hPa | 0 mm | 0 m/s | - | - |
| 1777441800 | 6.67° C | 62% | 1028.1 hPa | 0 mm | 0 m/s | - | - |
| 1777441201 | 6.11° C | 63% | 1028 hPa | 0 mm | 0 m/s | - | - |
| 1777440601 | 5° C | 66% | 1028 hPa | 0 mm | 0 m/s | - | - |
| 1777440001 | 5° C | 67% | 1028 hPa | 0 mm | 0 m/s | - | - |
| 1777439401 | 4.44° C | 67% | 1027.8 hPa | 0 mm | 0 m/s | - | - |
| 1777438801 | 4.44° C | 67% | 1027.8 hPa | 0 mm | 0 m/s | - | - |
| 1777438201 | 3.89° C | 68% | 1027.6 hPa | 0 mm | 0 m/s | - | - |
| 1777437601 | 3.89° C | 67% | 1027.7 hPa | 0 mm | 0 m/s | - | - |
| 1777437001 | 3.89° C | 67% | 1027.6 hPa | 0 mm | 0 m/s | - | - |
| 1777436401 | 3.89° C | 67% | 1027.7 hPa | 0 mm | 0 m/s | - | - |
| 1777435801 | 3.89° C | 66% | 1027.5 hPa | 0 mm | 0 m/s | - | - |
| 1777435201 | 3.89° C | 66% | 1027.5 hPa | 0 mm | 0 m/s | - | - |
| 1777434601 | 4.44° C | 66% | 1027.1 hPa | 0 mm | 0 m/s | - | - |
| 1777434001 | 4.44° C | 66% | 1027.3 hPa | 0 mm | 0 m/s | - | - |
| 1777433401 | 4.44° C | 65% | 1027.3 hPa | 0 mm | 0 m/s | - | - |
| 1777432801 | 5° C | 64% | 1027.2 hPa | 0 mm | 0 m/s | - | - |
| 1777432201 | 5° C | 63% | 1027.4 hPa | 0 mm | 0 m/s | - | - |
| 1777431601 | 5° C | 63% | 1027.4 hPa | 0 mm | 0 m/s | - | - |
| 1777431001 | 5° C | 62% | 1027.2 hPa | 0 mm | 0 m/s | - | - |
* Rain latest hour (hover to see other rain measurements)
** Current wind speed in m/s (hover to see current wind gust speed)